Weather History for El Paso, TX

Change the Weather History Date:

Saturday, September 28, 2013

  Actual Average Record
Temperature  
Mean Temperature 67 °F 72 °F  
Max Temperature 77 °F 84 °F 97 °F (1994)
Min Temperature 56 °F 59 °F 42 °F (1973)
Degree Days  
Heating Degree Days 0 0  
Month to date heating degree days 0 0  
Since 1 July heating degree days 0 0  
Cooling Degree Days 2 7  
Month to date cooling degree days 329 304  
Year to date cooling degree days 2607 2233  
Growing Degree Days 18 (Base 50)    
Moisture  
Dew Point 27 °F    
Average Humidity 27    
Maximum Humidity 40    
Minimum Humidity 14    
Precipitation  
Precipitation 0.00 in 0.04 in 1.21 in (1932)
Month to date precipitation 3.85 1.44  
Year to date precipitation 9.15 7.76  
Snow  
Snow 0.00 in - - ()
Month to date snowfall 0.0  
Since 1 July snowfall T  
Since 1 September snowfall 0.0  
Snow Depth 0.00 in    
Sea Level Pressure  
Sea Level Pressure 29.96 in    
Wind  
Wind Speed 11 mph (North)    
Max Wind Speed 20 mph    
Max Gust Speed 23 mph    
Visibility 10 miles    
Events      
T = Trace of Precipitation, MM = Missing Value Source: NWS Daily Summary

Daily Weather History Graph

Daily Weather History Graph

Search for Another Location

Airport:

Trip Planner

Search our weather history database for the weather conditions in past years. The results will help you decide how hot, cold, wet, or windy it might be!

Date:

Astronomy

Sep. 28, 2013 Rise Set
Actual Time 6:57 AM MDT 6:53 PM MDT
Civil Twilight 6:33 AM MDT 7:18 PM MDT
Nautical Twilight 6:05 AM MDT 7:46 PM MDT
Astronomical Twilight 5:36 AM MDT 8:14 PM MDT
Moon 1:05 AM MDT 2:57 PM MDT
Length of Visible Light 12h 44m
Length of Day
11h 56m
Waning Crescent, 35% of the Moon is Illuminated
Sep 28
Waning Crescent
Oct 4
New
Oct 11
First Quarter
Oct 18
Full
Oct 26
Last Quarter

Hourly Weather History & Observations

Time (MDT) Temp. Dew Point Humidity Pressure Visibility Wind Dir Wind Speed Gust Speed Precip Events Conditions
12:51 AM 66.9 °F 41.0 °F 39% 29.79 in 10.0 mi North 16.1 mph - N/A   Clear
1:51 AM 66.0 °F 37.9 °F 36% 29.81 in 10.0 mi North 16.1 mph - N/A   Clear
2:51 AM 64.9 °F 34.0 °F 32% 29.82 in 10.0 mi North 16.1 mph - N/A   Clear
3:51 AM 64.0 °F 32.0 °F 30% 29.83 in 10.0 mi North 11.5 mph - N/A   Clear
4:51 AM 62.1 °F 30.9 °F 31% 29.86 in 10.0 mi North 11.5 mph - N/A   Clear
5:51 AM 61.0 °F 30.0 °F 31% 29.89 in 10.0 mi North 11.5 mph - N/A   Clear
6:51 AM 60.1 °F 28.0 °F 30% 29.93 in 10.0 mi North 12.7 mph - N/A   Partly Cloudy
7:51 AM 61.0 °F 26.1 °F 26% 29.97 in 10.0 mi North 13.8 mph - N/A   Partly Cloudy
8:51 AM 64.0 °F 24.1 °F 22% 30.00 in 10.0 mi North 15.0 mph - N/A   Partly Cloudy
9:51 AM 66.0 °F 21.0 °F 18% 30.01 in 10.0 mi North 17.3 mph - N/A   Partly Cloudy
10:51 AM 69.1 °F 21.9 °F 17% 30.01 in 10.0 mi North 17.3 mph - N/A   Clear
11:51 AM 71.1 °F 21.9 °F 16% 30.01 in 10.0 mi North 12.7 mph - N/A   Clear
12:51 PM 73.0 °F 23.0 °F 15% 30.00 in 10.0 mi North 15.0 mph 19.6 mph N/A   Clear
1:51 PM 73.9 °F 24.1 °F 16% 29.99 in 10.0 mi NNW 3.5 mph - N/A   Clear
2:51 PM 75.0 °F 23.0 °F 14% 29.96 in 10.0 mi NE 13.8 mph - N/A   Clear
3:51 PM 75.9 °F 24.1 °F 15% 29.96 in 10.0 mi NNE 5.8 mph - N/A   Clear
4:51 PM 75.9 °F 26.1 °F 16% 29.95 in 10.0 mi NNE 8.1 mph - N/A   Clear
5:51 PM 75.9 °F 25.0 °F 15% 29.96 in 10.0 mi North 8.1 mph - N/A   Clear
6:51 PM 73.0 °F 24.1 °F 16% 29.98 in 10.0 mi NNE 6.9 mph - N/A   Clear
7:51 PM 66.9 °F 28.0 °F 23% 30.01 in 10.0 mi East 4.6 mph - N/A   Clear
8:51 PM 63.0 °F 28.0 °F 27% 30.03 in 10.0 mi East 6.9 mph - N/A   Clear
9:51 PM 66.0 °F 25.0 °F 21% 30.04 in 10.0 mi NNW 4.6 mph - N/A   Clear
10:51 PM 63.0 °F 28.9 °F 28% 30.05 in 10.0 mi North 3.5 mph - N/A   Clear
11:51 PM 60.1 °F 23.0 °F 24% 30.06 in 10.0 mi ENE 9.2 mph - N/A   Clear